Regional Weather Roundup
Issued by NWS

Home | Current Version | Previous Version | Graphics & Text | Print | Product List | Glossary On
Versions: 1 2 3 4 5 6 7 8 9 10 11 12 13 14 15 16 17 18 19 20 21 22 23 24 25 26 27 28 29 30 31 32 33 34 35 36 37 38 39 40 41 42 43 44 45 46 47 48 49 50
000
ASUS45 KTFX 300719
RWRMT
MONTANA HOURLY WEATHER ROUNDUP
NATIONAL WEATHER SERVICE GREAT FALLS MT
119 AM MDT SAT AUG 30 2014

NOTE: "FAIR" INDICATES FEW OR NO CLOUDS BELOW 12000 FEET WITH NO
SIGNIFICANT WEATHER AND/OR OBSTRUCTIONS TO VISIBILITY.

* THESE STATIONS ARE NOT UNDER NWS QUALITY CONTROL. THEY DO NOT
   REPORT WEATHER SUCH AS PRECIPITATION OR FOG.

MTZ001>007-043-300800-
WEST OF THE DIVIDE
CITY           SKY/WX    TMP DP  RH WIND       PRES   REMARKS
KALISPELL      CLOUDY    61  45  56 SW6       29.80R
MISSOULA       CLOUDY    70  36  29 NW10      29.86R
BUTTE          PTCLDY    54  46  74 CALM      29.95S
MULLAN PASS    CLOUDY    54  37  53 VRB7      29.98S
* LINCOLN      N/A       49  41  74 SW1        N/A
* LOOKOUT PASS N/A       61  40  46 SE7        N/A
* POLSON       N/A       66  35  32 SE2        N/A
* RONAN APT    CLOUDY    70  39  32 N/A        N/A
* SEELEY LAKE  N/A       53  40  62 NE1        N/A
* THOMP F APT  CLOUDY    57  40  53 N4G9       N/A
$$

MTZ008-052>055-300800-
SOUTHWEST MONTANA
CITY           SKY/WX    TMP DP  RH WIND       PRES   REMARKS
BOZEMAN        CLOUDY    70  43  38 S12G17    29.90R
DILLON         PTCLDY    57  46  67 E8        29.90F
W YELLOWSTONE  PTCLDY    45  43  93 S5        30.08F
* THREE FORKS  MOCLDY    68  55  63 NW5        N/A
* BOULDER HILL N/A       53  44  72 SW3        N/A
* MONIDA PASS  N/A       57  40  53 SE12       N/A
* RAYNOLDS PAS N/A       48  33  56 S6G12      N/A
* WHITEHALL    N/A       66  42  42 NW5G16     N/A
* WISE RIVER   N/A       54  42  64 SE4        N/A
$$

MTZ009>010-012-014-046-048-049-054-300800-
EAST SLOPES AND CENTRAL MONTANA
CITY           SKY/WX    TMP DP  RH WIND       PRES   REMARKS
CUT BANK       PTCLDY    61  43  52 S3        29.77F
GREAT FALLS    MOCLDY    68  43  40 S10       29.78S
HELENA         MOCLDY    66  43  43 SW3       29.83F
MALMSTROM AFB  MOCLDY    68  45  44 S16G24    29.79S
* CONRAD       PTCLDY    55  48  77 N/A        N/A
* EAST GLACIER N/A       65  29  26 W21G26     N/A
* MONARCH      N/A       54  38  55 S11        N/A
* PENDROY      N/A       63  34  34 W11G17     N/A
* ROGERS PASS  N/A       59  33  38 E2G8       N/A
* SAINT MARY   N/A       65  30  27 SW8G22     N/A
* SWEET GRASS  N/A       60  56  87 S14        N/A
* WHITE SULPH  N/A       59  50  72 NW8G16     N/A
$$

MTZ011-013-016-021-035-040-045-047-050-051-300800-
NORTH CENTRAL MONTANA
CITY           SKY/WX    TMP DP  RH WIND       PRES   REMARKS
HAVRE          PTCLDY    70  52  53 SE12G17   29.71F
LEWISTOWN      MOCLDY    61  52  72 E7        29.85F
* CHINOOK      CLEAR     61  55  81 E10       29.74F
* FORT BENTON  PTCLDY    64  54  70 CALM      29.75S
* CHESTER      N/A       61  52  72 S6         N/A
* DENTON       N/A       67  51  57 S18G24     N/A
* JUDITH GAP   N/A       58  52  81 SE7        N/A
* LOMA         N/A       64  54  70 NE8        N/A
$$

MTZ017>020-022>027-061-062-300800-
NORTHEAST MONTANA
CITY           SKY/WX    TMP DP  RH WIND       PRES   REMARKS
GLASGOW        CLEAR     57  52  83 E13       29.86F
GLENDIVE       CLEAR     55  52  90 S3        29.95F
JORDAN         CLEAR     57  52  83 SE7       29.87F
SIDNEY         CLEAR     55  52  90 CALM      29.95F
WOLF POINT     CLEAR     57  50  78 E8        29.90F
* BEAVER HILL  N/A       55  51  86 SE14       N/A
* CIRCLE       N/A       56  52  87 SE4        N/A
* LINDSAY DVD  N/A       50  48  93 E4         N/A
* NAVAJO       N/A       55  49  80 S8         N/A
$$

MTZ028>042-056>058-300800-
SOUTHCENTRAL AND SOUTHEAST MONTANA
CITY           SKY/WX    TMP DP  RH WIND       PRES   REMARKS
BAKER          CLEAR     54  52  93 SE8       29.98F
BILLINGS       PTCLDY    64  52  65 S6        29.86F
LIVINGSTON     MOCLDY    63  48  58 SW9       29.90F
MILES CITY     CLEAR     57  50  78 SE8       29.91F
* LAUREL APT   PTCLDY    63  52  68 N/A        N/A
* ROUNDUP APT  PTCLDY    59  50  72 N/A        N/A
* ALZADA       N/A       55  52  90 E6         N/A
* HYSHAM       N/A       64  48  56 SE8G14     N/A
* LAME DEER    N/A       60  51  72 SE9        N/A
* REED POINT   N/A       62  57  84 SE5        N/A
* ROSCOE HILL  N/A       62  36  38 SE6        N/A
$$

REGIONAL REPORTS...DAKOTAS
CITY           SKY/WX    TMP DP  RH WIND       PRES   REMARKS
WILLISTON      CLEAR     57  50  78 S3        29.95F
DICKINSON      CLEAR     52  48  86 SE8       29.98S
BEACH          N/A       50  50 100 SE9       29.97F
CROSBY         CLEAR     50  50 100 S7        29.95F
TIOGA          CLEAR     45  45 100 CALM      30.00S
WATFORD CITY   CLEAR     50  48  93 SE5       29.94F
BISMARCK       CLEAR     52  52 100 CALM      29.99S
GRAND FORKS    CLEAR     54  52  93 N6        29.92R
FARGO          CLOUDY    61  55  81 N15       29.88R
BUFFALO SD     CLEAR     54  52  93 S7        29.95S
RAPID CITY     PTCLDY    54  52  93 CALM      30.03F
$$

REGIONAL REPORTS...WYOMING/IDAHO/WASHINGTON
CITY           SKY/WX    TMP DP  RH WIND       PRES   REMARKS
GILLETTE       CLEAR     61  52  72 S15       30.00F
SHERIDAN       CLEAR     55  48  77 S5        29.92F
CODY           PTCLDY    57  46  67 CALM      29.96F
YELLOWSTONE LA PTCLDY    43  39  86 CALM      30.18F
SALMON         MOCLDY    63  50  63 CALM      29.84R
MULLAN PASS    CLOUDY    54  37  53 VRB7      29.98S
SAND POINT     MOCLDY    57  46  67 W3        29.79F
SPOKANE        MOCLDY    63  43  48 SW13      29.83S
$$

REGIONAL REPORTS...ALBERTA
CITY           SKY/WX    TMP DP  RH WIND       PRES   REMARKS
CALGARY        MOCLDY    63  39  41 NW14G22   29.70S
LETHBRIDGE     MOCLDY    57  46  67 SW9       29.69F
MEDICINE HAT   CLEAR     68  52  57 S14G25    29.64F
EDMONTON       LGT RAIN  54  50  86 NW10G20   29.69R
WATERTON GATE  N/A       64  36  35 W17G31     N/A
CARDSTON       N/A       57  41  55 SW6        N/A
MILK RIVER     N/A       57  52  83 SW5        N/A
$$

REGIONAL REPORTS...SASKATCHEWAN
CITY           SKY/WX    TMP DP  RH WIND       PRES   REMARKS
SWIFT CURRENT  CLEAR     57  50  78 S18G26    29.76F
REGINA         N/A       52  46  80 SE13      29.90F
VAL MARIE      N/A       59  50  72 SE14       N/A
ASSINIBOIA     N/A       52  46  80 SE7        N/A
CORONACH       N/A       52  46  80 SE7        N/A

$$



USA.gov is the U.S. government's official web portal to all federal, state and local government web resources and services.